Regional Weather Roundup
Issued by NWS Sterling, VA

Current Version | Previous Version | Text Only | Print | Product List | Glossary On
Versions: 1 2 3 4 5 6 7 8 9 10 11 12 13 14 15 16 17 18 19 20 21 22 23 24 25 26 27 28 29 30 31 32 33 34 35 36 37 38 39 40 41 42 43 44 45 46 47 48 49 50
693
ASUS41 KLWX 081510
RWRLWX

REGIONAL WEATHER ROUNDUP
NATIONAL WEATHER SERVICE BALTIMORE MD/WASHINGTON DC
1000 AM EST MON FEB 08 2016

Note: "FAIR" indicates few or no clouds below 12,000 feet
with no significant weather and/or obstructions to visibility.
 TC=TEMPERATURE CELSIUS

 * =Non NWS site. Station does not report precipitation (e.g. rain,
    snow, etc.), thunder, or fog.

DCZ001-MDZ009-015-VAZ040>042-051-053>054-081600-
WASHINGTON METRO

CITY           SKY/WX    TMP DP  RH WIND       PRES   REMARKS
WASHINGTON NAT PTSUNNY   42  26  53 NE10      29.80F
DULLES         PTSUNNY   39  20  46 E10       29.78F
ANDREWS AFB    MOSUNNY   41  25  54 NE10G20   29.78F
FT BELVOIR     FAIR      42  22  44 VRB6      29.79F
QUANTICO       FAIR      42  23  46 NE10      29.81F
COLLEGE PARK*  FAIR      41  25  52 NE7       29.80F
LEESBURG*      FAIR      41  28  60 NE5       29.80S
MANASSAS*      SUNNY     43  23  45 E5        29.79F
GAITHERSBURG*  SUNNY     39  21  48 E8        29.81F

$$

MDZ006>007-011-014-081600-
BALTIMORE METRO

CITY           SKY/WX    TMP DP  RH WIND       PRES   REMARKS
BWI AIRPORT    PTSUNNY   40  25  55 NE10G23   29.78F
MD SCIENCE CTR   N/A     41  25  53 MISG      29.81F
MARTIN STATE   PTSUNNY   43  28  56 N9        29.82F
ANNAPOLIS        N/A    N/A N/A N/A MISG      29.79F
FORT MEADE*    SUNNY     41  27  56 NE6       29.81F

$$

MDZ012-015-019>023-081600-
MARYLAND EASTERN SHORE

CITY           SKY/WX    TMP DP  RH WIND       PRES   REMARKS
OCEAN CITY     CLOUDY    40  35  83 N12       29.76S
SALISBURY      CLOUDY    40  29  64 N10       29.75F
BAY BRIDGE AP*   N/A     37  27  65 CALM      29.80F
CAMBRIDGE*     CLOUDY    37  27  65 N8        29.78S
EASTON*        PTSUNNY   39  27  60 N9        29.82F

$$

MDZ017>025-081600-
SOUTHERN MARYLAND

CITY           SKY/WX    TMP DP  RH WIND       PRES   REMARKS
PATUXENT RIVER CLOUDY    40  26  57 N9        29.78F
ST INIGOES     PTSUNNY   42  27  55 N9        29.77F
LEONARDTOWN*   PTSUNNY   39  23  52 NE7       29.79F

$$

MDZ003>005-081600-
NORTH CENTRAL MARYLAND

CITY           SKY/WX    TMP DP  RH WIND       PRES   REMARKS
FREDERICK*     SUNNY     34  28  80 CALM      29.83F
HAGERSTOWN APT SUNNY     31  23  72 W6        29.77F
WESTMINSTER*   SUNNY     37  30  75 E9        29.77F

$$

MDZ501>502-081600-
WESTERN MARYLAND

CITY           SKY/WX    TMP DP  RH WIND       PRES   REMARKS
OAKLAND*       MOSUNNY   32  21  64 SE17G23   29.63F WCI  21
CUMBERLAND*    MOSUNNY   32  28  86 CALM      29.80F

$$

VAZ025>031-081600-
SHENANDOAH VALLEY

CITY           SKY/WX    TMP DP  RH WIND       PRES   REMARKS
WINCHESTER*    FAIR      37  28  70 CALM      29.77F
FRONT ROYAL*   FAIR      34  28  80 CALM      29.77F
LURAY*         FAIR      32  28  86 CALM      29.76F
NEW MARKET*    FAIR      33  27  78 CALM      29.75F
STAUNTON*      FAIR      36  30  79 CALM      29.77F
WAYNESBORO*    FAIR      38  24  56 E8        29.73F

$$

WVZ021-048>050-054>055-081600-
EASTERN WEST VIRGINIA PANHANDLE

CITY           SKY/WX    TMP DP  RH WIND       PRES   REMARKS
MARTINSBURG    FAIR      35  27  72 CALM      29.79S
PETERSBURG*    FAIR      32  27  83 CALM      29.75F

$$

VAZ036>039-050-081600-
CENTRAL FOOTHILLS

CITY           SKY/WX    TMP DP  RH WIND       PRES   REMARKS
CHARLOTTESVILL FAIR      40  26  57 CALM      29.78F
CULPEPER*      FAIR      38  24  57 CALM      29.81S
ORANGE*        FAIR      41  23  48 NW5       29.81S
GORDONSVILLE*  FAIR      40  23  50 NE5       29.78F
WARRENTON*     FAIR      42  27  55 NE5       29.79S

$$

VAZ055>057-081600-
NORTH AND CENTRAL PIEDMONT

CITY           SKY/WX    TMP DP  RH WIND       PRES   REMARKS
FREDERICKSBRG* FAIR      42  24  50 E7        29.79F
STAFFORD*      FAIR      42  22  44 E9        29.82F

$$

NCZ024-NYZ072-PAZ021-071-VAZ022-071-081600-
OTHER REGIONAL OBSERVATIONS

CITY           SKY/WX    TMP DP  RH WIND       PRES   REMARKS
NEW YORK CITY  SNOW      32  27  81 NE16G24   29.84R VSB 1/2 WCI  21
PHILADELPHIA   CLOUDY    41  27  57 NE9       29.80R
PITTSBURGH     CLOUDY    38  23  55 SE9       29.62F
ROANOKE        FAIR      35  27  72 CALM      29.77R
RICHMOND       FAIR      42  24  49 NE6       29.80R
RALEIGH        PTSUNNY   45  26  47 SE8       29.82F

$$

ANZ530>537-081600-
MARINE OBSERVATIONS

STATION/POSITION TIME  TEMP    WIND        PRES
                       AIR SEA DIR/SP/G
                 (UTC) (F)     (DEG/KT/KT) (MB)
THOMAS PT LIGHT  1500   38 38   20/ 13/ 14   N/A
BALT KEY BRIDGE  1400   38     350/  8/ 11 1009.6F
COVE POINT       1400   38      10/ 11/ 14 1009.6F
LEWISETTA        1400   38 40  340/  8/ 10 1008.9R
SOLOMONS ISLAND  1400   39 41  350/  5/  7   N/A

$$





USA.gov is the U.S. government's official web portal to all federal, state and local government web resources and services.